Weather reports worldwide

Advertisment
Plymouth, United Kingdom (3827): temperature & dewpoint: 15.02.2017 14:00:00 - 21.02.2017 14:00:00 (GMT)Plymouth, United Kingdom (3827): wind speed: 15.02.2017 14:00:00 - 21.02.2017 14:00:00 (GMT)Plymouth, United Kingdom (3827): wind direction: 15.02.2017 14:00:00 - 21.02.2017 14:00:00 (GMT)Plymouth, United Kingdom (3827): reduced air pressure: 15.02.2017 14:00:00 - 21.02.2017 14:00:00 (GMT)Plymouth, United Kingdom (3827): visibility: 15.02.2017 14:00:00 - 21.02.2017 14:00:00 (GMT)Plymouth, United Kingdom (3827): precipitation: 15.02.2017 14:00:00 - 21.02.2017 14:00:00 (GMT)
Date & Time tt [°C] td [°C] ff [km/h] ff [kn] dd ppp [hPa] vv [km] rr [mm]
21.02.2017 14:00:00 - - - - - - - -
21.02.2017 13:00:00 - - - - - - - -
21.02.2017 12:00:00 - - - - - - - -
21.02.2017 11:00:00 - - - - - - - -
21.02.2017 10:00:00 - - - - - - - -
21.02.2017 09:00:00 - - - - - - - -
21.02.2017 08:00:00 - - - - - - - -
21.02.2017 07:00:00 - - - - - - - -
21.02.2017 06:00:00 - - - - - - - -
21.02.2017 05:00:00 10,4 10,4 18 10 W 1021,2 15 0,0
21.02.2017 04:00:00 10,2 10,2 22 12 W 1021,6 3,6 0,0
21.02.2017 03:00:00 10,0 10,0 16 9 WSW 1022,1 11 0,0
21.02.2017 02:00:00 9,9 9,7 15 8 SW 1022,5 15 0,0
21.02.2017 01:00:00 9,8 9,6 22 12 W 1023,0 6 0,0
21.02.2017 00:00:00 9,6 9,4 15 8 WSW 1023,4 7 0,0
20.02.2017 23:00:00 9,5 9,4 21 11 W 1023,6 4,4 0,0
20.02.2017 22:00:00 9,7 9,6 21 11 W 1023,5 10 0,0
20.02.2017 21:00:00 9,8 9,6 22 12 W 1023,5 11 0,0
20.02.2017 20:00:00 9,9 9,6 18 10 W 1023,5 9 0,0
20.02.2017 19:00:00 10,2 9,7 16 9 WNW 1023,5 20 0,0
20.02.2017 18:00:00 10,4 9,8 18 10 WNW 1023,2 16 0,0
20.02.2017 17:00:00 11,0 9,9 18 10 WNW 1022,8 45 0,0
20.02.2017 16:00:00 11,6 9,8 18 10 WNW 1022,8 30 0,0
20.02.2017 15:00:00 12,8 11,1 22 12 WNW 1022,6 16 0,0
20.02.2017 14:00:00 12,3 11,4 21 11 W 1023,0 25 0,0
20.02.2017 13:00:00 11,8 10,5 13 7 SW 1023,3 35 0,0
20.02.2017 12:00:00 11,9 11,0 13 7 W 1023,9 45 0,0
20.02.2017 11:00:00 10,9 10,7 11 6 WNW 1024,2 25 0,0
20.02.2017 10:00:00 10,4 10,4 13 7 WNW 1024,4 14 0,0
20.02.2017 09:00:00 10,3 10,3 13 7 W 1024,0 4,5 0,0
20.02.2017 08:00:00 10,6 10,6 9 5 NW 1023,3 17 0,0
20.02.2017 07:00:00 10,4 10,3 15 8 WNW 1022,9 27 0,0
20.02.2017 06:00:00 10,2 10,1 8 4 W 1022,7 7 0,0
20.02.2017 05:00:00 9,9 9,9 13 7 W 1022,9 0,3 0,0
20.02.2017 04:00:00 9,9 9,9 13 7 W 1023,0 4,0 0,0
20.02.2017 03:00:00 10,0 10,0 11 6 WNW 1023,2 7 0,0
20.02.2017 02:00:00 10,0 9,9 9 5 SW 1023,5 3,0 0,0
20.02.2017 01:00:00 10,1 10,1 9 5 SW 1023,9 1,7 0,0
20.02.2017 00:00:00 9,7 9,7 8 4 SW 1024,4 0,4 0,0
19.02.2017 23:00:00 9,8 9,7 11 6 SW 1024,4 2,3 0,0
19.02.2017 22:00:00 10,0 10,0 8 4 WSW 1024,3 6 0,0
19.02.2017 21:00:00 10,0 9,9 11 6 W 1024,1 17 0,0
19.02.2017 20:00:00 9,9 9,9 13 7 W 1023,9 15 0,0
19.02.2017 19:00:00 9,6 9,6 8 4 WSW 1023,9 4,1 0,0
19.02.2017 18:00:00 9,7 9,6 11 6 SW 1023,7 0,9 0,0
19.02.2017 17:00:00 9,9 9,8 13 7 SW 1023,5 15 0,0
19.02.2017 16:00:00 9,8 9,6 18 10 SW 1023,4 11 0,0
19.02.2017 15:00:00 9,8 9,3 18 10 SW 1024,0 11 0,0
19.02.2017 14:00:00 9,7 8,8 16 9 WSW 1024,4 17 0,0
19.02.2017 13:00:00 10,6 8,7 18 10 SW 1024,8 18 0,0
19.02.2017 12:00:00 11,0 8,6 16 9 SW 1025,3 18 0,0
19.02.2017 11:00:00 11,1 8,4 15 8 W 1025,8 15 0,0
19.02.2017 10:00:00 10,1 8,4 16 9 WSW 1025,7 22 0,0
19.02.2017 09:00:00 9,2 8,0 13 7 W 1025,6 19 0,0
19.02.2017 08:00:00 8,4 7,8 13 7 W 1025,4 30 0,0
19.02.2017 07:00:00 8,2 8,2 4 2 W 1025,1 9 0,0
19.02.2017 06:00:00 8,6 8,5 11 6 W 1024,7 4,9 0,0
19.02.2017 05:00:00 8,5 8,5 9 5 W 1024,5 2,5 0,0
19.02.2017 04:00:00 8,5 8,5 8 4 W 1024,5 1,9 0,0
19.02.2017 03:00:00 7,8 7,8 8 4 W 1024,4 1,5 0,0
19.02.2017 02:00:00 7,2 7,2 2 1 SW 1024,8 1,0 0,0
19.02.2017 01:00:00 6,9 6,9 2 1 N 1025,2 1,5 0,0
19.02.2017 00:00:00 6,6 6,6 2 1 SE 1025,0 0,8 0,0
18.02.2017 23:00:00 6,5 6,4 2 1 NW 1025,0 1,8 0,0
18.02.2017 22:00:00 7,9 7,9 2 1 SE 1024,9 1,8 0,0
18.02.2017 21:00:00 7,5 7,5 5 3 SW 1025,1 2,4 0,0
18.02.2017 20:00:00 7,3 6,9 2 1 ENE 1024,5 2,7 0,0
18.02.2017 19:00:00 8,1 7,7 8 4 SE 1024,5 4,2 0,0
18.02.2017 18:00:00 8,4 7,5 8 4 SSE 1023,9 5 0,0
18.02.2017 17:00:00 9,7 7,8 9 5 S 1023,6 7 0,0
18.02.2017 16:00:00 11,0 8,0 11 6 SSE 1023,3 9 0,0
18.02.2017 15:00:00 12,2 7,4 13 7 SSW 1023,4 15 0,0
18.02.2017 14:00:00 12,8 8,6 13 7 S 1023,5 10 0,0
18.02.2017 13:00:00 12,3 8,1 16 9 SSE 1023,8 12 0,0
18.02.2017 12:00:00 12,1 7,8 15 8 SSE 1024,5 14 0,0
18.02.2017 11:00:00 11,5 8,4 15 8 SE 1024,5 14 0,0
18.02.2017 10:00:00 9,7 9,2 13 7 SE 1024,3 4,7 0,0
18.02.2017 09:00:00 7,7 7,6 16 9 ESE 1023,9 1,2 0,0
18.02.2017 08:00:00 7,5 7,5 13 7 E 1023,8 1,0 0,0
18.02.2017 07:00:00 7,4 7,4 16 9 E 1023,3 1,0 0,0
18.02.2017 06:00:00 7,3 7,3 16 9 E 1023,3 0,7 0,0
18.02.2017 05:00:00 7,2 7,2 16 9 E 1023,6 0,6 0,0
18.02.2017 04:00:00 7,1 7,1 16 9 E 1023,7 1,0 0,0
18.02.2017 03:00:00 7,2 7,1 21 11 E 1024,1 2,0 0,0
18.02.2017 02:00:00 7,3 7,0 13 7 E 1024,7 3,2 0,0
18.02.2017 01:00:00 7,5 7,0 16 9 ESE 1024,8 6 0,0
18.02.2017 00:00:00 7,5 7,1 8 4 E 1025,4 5 0,0
17.02.2017 23:00:00 7,2 6,9 13 7 E 1025,8 4,4 0,0
17.02.2017 22:00:00 7,4 6,9 5 3 E 1026,1 6 0,0
17.02.2017 21:00:00 7,7 7,4 11 6 E 1026,1 5 0,0
17.02.2017 20:00:00 8,1 7,8 13 7 ESE 1026,4 9 0,0
17.02.2017 19:00:00 8,6 8,0 9 5 SE 1026,5 8 0,0
17.02.2017 18:00:00 9,1 8,3 13 7 SE 1026,4 10 0,0
17.02.2017 17:00:00 9,7 8,9 15 8 SSE 1026,3 10 0,0
17.02.2017 16:00:00 10,1 9,0 13 7 SSE 1026,5 11 0,0
17.02.2017 15:00:00 10,5 9,1 13 7 SSE 1027,0 15 0,0
17.02.2017 14:00:00 10,9 9,6 15 8 S 1027,5 11 0,0
17.02.2017 13:00:00 10,8 9,8 11 6 SSE 1027,9 9 0,0
17.02.2017 12:00:00 10,9 10,0 13 7 S 1028,4 12 0,0
17.02.2017 11:00:00 10,3 9,9 13 7 S 1028,6 8 0,0
17.02.2017 10:00:00 9,5 9,1 11 6 SSE 1028,6 6 0,0
17.02.2017 09:00:00 8,9 8,8 8 4 SSE 1028,4 8 0,0
17.02.2017 08:00:00 8,3 8,2 5 3 SSE 1028,4 7 0,0
17.02.2017 07:00:00 7,9 7,8 9 5 SE 1028,3 4,2 0,0
17.02.2017 06:00:00 7,2 6,9 11 6 S 1028,4 12 0,0
17.02.2017 05:00:00 7,7 7,3 11 6 SSW 1028,5 18 0,0
17.02.2017 04:00:00 8,0 7,4 8 4 S 1028,7 30 0,0
17.02.2017 03:00:00 8,3 7,5 15 8 S 1029,1 15 0,0
17.02.2017 02:00:00 8,3 7,8 15 8 SSW 1029,3 20 0,0
17.02.2017 01:00:00 8,1 7,6 8 4 SSW 1029,7 23 0,0
17.02.2017 00:00:00 8,1 7,6 11 6 SW 1030,1 30 0,0
16.02.2017 23:00:00 7,6 7,3 13 7 SW 1030,3 35 0,0
16.02.2017 22:00:00 7,6 7,6 11 6 SW 1030,5 20 0,0
16.02.2017 21:00:00 6,9 6,8 8 4 SW 1030,4 12 0,0
16.02.2017 20:00:00 7,1 6,8 8 4 SW 1030,4 11 0,0
16.02.2017 19:00:00 7,8 7,4 11 6 SSW 1030,3 13 0,0
16.02.2017 18:00:00 8,3 7,5 11 6 SSW 1030,2 19 0,0
16.02.2017 17:00:00 10,1 8,4 13 7 SSW 1029,9 26 0,0
16.02.2017 16:00:00 10,2 8,1 13 7 SSW 1029,8 22 0,0
16.02.2017 15:00:00 12,4 10,0 15 8 SSW 1030,1 18 0,0
16.02.2017 14:00:00 11,9 8,9 11 6 SSW 1030,4 25 0,0
16.02.2017 13:00:00 12,6 9,3 11 6 SSW 1030,7 24 0,0
16.02.2017 12:00:00 12,6 9,4 8 4 SSW 1031,5 26 0,0
16.02.2017 11:00:00 9,8 8,1 4 2 SSW 1031,7 15 0,0
16.02.2017 10:00:00 9,6 8,5 8 4 W 1031,9 19 0,0
16.02.2017 09:00:00 8,0 7,9 5 3 W 1031,7 9 0,0
16.02.2017 08:00:00 7,3 7,0 4 2 SSW 1031,4 9 0,0
16.02.2017 07:00:00 7,7 7,4 4 2 WNW 1031,0 14 0,0
16.02.2017 06:00:00 7,7 7,4 4 2 W 1031,0 11 0,0
16.02.2017 05:00:00 7,9 7,8 4 2 W 1031,3 10 0,0
16.02.2017 04:00:00 8,0 8,0 5 3 NW 1031,0 7 0,0
16.02.2017 03:00:00 8,4 8,4 15 8 W 1031,2 5 0,0
16.02.2017 02:00:00 8,7 8,7 9 5 W 1031,0 7 0,0
16.02.2017 01:00:00 8,8 8,8 11 6 WSW 1031,0 9 0,0
16.02.2017 00:00:00 9,0 9,0 11 6 WSW 1030,9 8 0,0
15.02.2017 23:00:00 9,2 9,2 16 9 WSW 1030,8 9 0,0
15.02.2017 22:00:00 9,2 9,2 11 6 WSW 1030,7 7 0,0
15.02.2017 21:00:00 9,1 9,1 16 9 SW 1030,3 7 0,0
15.02.2017 20:00:00 8,7 8,6 15 8 SW 1029,8 7 0,0
15.02.2017 19:00:00 9,3 9,2 15 8 SW 1029,8 7 0,0
15.02.2017 18:00:00 9,1 8,7 22 12 SW 1029,2 10 0,0
15.02.2017 17:00:00 9,9 8,9 28 15 SW 1028,6 9 0,0
15.02.2017 16:00:00 10,9 9,1 28 15 SW 1028,2 11 0,0
15.02.2017 15:00:00 11,8 9,3 24 13 SW 1027,7 18 0,0
15.02.2017 14:00:00 12,1 10,0 18 10 SW 1027,2 11 0,0

tt = temperature
td = dewpoint
ff = wind speed
dd = wind direction
ppp = reduced air pressure
vv = visibility
rr = precipitation

Next stations